Location: Gälforsberget
(66.6500°N, 22.4167°E)
Time: 01:54:22
(UTC+00:00)

Cosmos 1869 - Pass Details

Date: 11 April 2026
Orbit: 443 x 468 km, 82.5° (Epoch: 20 May)

Event Time Altitude Azimuth Distance (km) Brightness Sun altitude
Exits shadow 21:34:02 22° 200° (SSW) 1,091 4.4 -14.1°
Maximum altitude 21:36:17 85° 288° (WNW) 480 3.0 -14.1°
Drops below altitude 10° 21:39:54 10° 18° (NNE) 1,649 6.7 -14.2°
Sets 21:42:00 0° 19° (NNE) 2,533 7.8 -14.2°
